Etusivu
METAR-TAF:

METAR-TAF

Lentoasemat :

Hasvik, Norja

Leveyspiiri: 70-29N, Pituuspiiri: 022-09E, korkeus merenpinnasta: 10 m

Tämänhetkinen sää

Tämä raportti tehtiin 20 minuuttia sitten, kello 17.50 UTC
Tuuli 26 kn lännestä puuskistuen 36 kn:hen
Lämpötila 9°C
Kosteus 66%
Ilmanpaine 1019 hPa
Näkyvyys 10 km tai enemmän
Hajonneita pilviä 2900 ft:n korkeudessa

METAR: ENHK 191750Z 28026G36KT 9999 BKN029 09/03 Q1019

Aika: 19:10 (18:10 UTC)


TAF: puuttuu

Säähavainnot ja -ennusteet yli 4000 lentoasemalta (METAR- ja TAF-raportit).

Käytössä olevat sääasemat on merkitty karttaan keltaisilla ja punaisilla pisteillä.

Aseta hiiri pisteen päälle nähdäksesi sääaseman nimen.

Klikkaa sitten nähdäksesi säähavainnot ja -ennusteet.

Kartan vaihtaminen: klikkaa mustalla rastilla varustettuja vihreitä pisteitä, niin voit zoomata sisään; viivalla varustettua vihreää pistettä, niin voit zoomata ulos tai vihreitä nuolia, niin pääset viereisille kartoille.


METAR-TAF: